Location: Bernay
(48.6766°N, 2.9386°E)
Time: 23:53:56
(UTC+00:00)

Radarsat Rocket - Pass Details

Date: 12 January 2026
Orbit: 933 x 1491 km, 100.5° (Epoch: 16 February)

Event Time Altitude Azimuth Distance (km) Brightness Sun altitude
Rises 17:38:02 0° 143° (SE) 3,891 6.9 -13.1°
Reaches altitude 10° 17:40:43 10° 139° (SE) 2,868 6.2 -13.5°
Maximum altitude 17:46:49 52° 65° (ENE) 1,211 4.1 -14.4°
Drops below altitude 10° 17:52:31 10° 351° (N) 2,674 6.2 -15.4°
Sets 17:54:56 0° 347° (NNW) 3,606 7.0 -15.7°
